Other Surface Observations
Issued by NWS Jacksonville, FL

Home | Current Version | Previous Version | Text Only | Print | Product List | Glossary On
Versions: 1 2 3 4 5 6 7 8 9 10 11 12 13 14 15 16 17 18 19 20 21 22 23 24 25 26 27 28 29 30 31 32 33 34 35 36 37 38 39 40 41 42 43 44 45 46 47 48 49 50
000
SXUS52 KJAX 251913
OSOJAX
OTHER SURFACE OBSERVATIONS
NATIONAL WEATHER SERVICE JACKSONVILLE FL
300 PM EDT WED APR 25 2018

FLZ020>025-030>033-035>038-040-252000-
...FLORIDA...

CITY           SKY/WX    TMP DP  RH WIND       PRES   REMARKS
CECIL FIELD    MOSUNNY   79  57  47 W14       29.87F SMOKE
HERLONG FIELD  NOT AVBL
FERNANDINA BCH NOT AVBL
LAKE CITY      FAIR      77  54  44 W13       29.89F
JUNIPER SPGS   NOT AVBL
BUNNELL        NOT AVBL
KEYSTONE HGTS  FAIR      79  48  34 W12G21    29.89F
$$

GAZ132>136-149>154-162>166-252000-
...GEORGIA...

CITY           SKY/WX    TMP DP  RH WIND       PRES   REMARKS
JESUP          NOT AVBL
HOMERVILLE     FAIR      77  55  47 W12G20    29.88F
SWAINSBORO     CLOUDY    72  55  56 NW12      29.86S
CORDELE        NOT AVBL
EASTMAN        MOCLDY    74  43  32 NW9G17    29.90F
$$

PLEASE NOTE:  THESE OBSERVATIONS ARE NOT QUALITY CONTROLLED AND MAY
NOT BE AVAILABLE AT ALL TIMES.
$$




USA.gov is the U.S. government's official web portal to all federal, state and local government web resources and services.